Location: Unspecified
(50.0830°N, 0.0000°E)
Time: 22:22:28
(UTC+00:00)

N. Korean satellite - Pass Details

Date: 19 November 2019
Orbit: 455 x 506 km, 97.2° (Epoch: 10 December)

Event Time Altitude Azimuth Distance (km) Brightness Sun altitude
Rises 16:45:29 0° 161° (SSE) 2,564 10.3 -5.7°
Reaches altitude 10° 16:47:32 10° 159° (SSE) 1,694 9.4 -6.0°
Maximum altitude 16:51:10 73° 75° (ENE) 530 6.6 -6.6°
Drops below altitude 10° 16:54:54 10° 351° (N) 1,729 9.2 -7.1°
Sets 16:57:00 0° 349° (N) 2,622 10.2 -7.4°
